When you browse on this site, cookies collect data to enhance your experience and personalize the content and advertising you see.
Visit our Privacy Policy to learn more. By continuing to use the site, you agree to this use of cookies and data.
  • In Spain
  • List of Countries
  • For 7 days
  • Water Temperature
  • Satellite Maps
  • Weather Map
  • Weather Widgets
  • user-avatar
    Login

    Hourly Weather Baku

    Today, 19 December, Wednesday

    Time Temperature Precipitation Wind Pressure Humidity
    00:00 +6°C° 0 mm 4 mps 771 mmHg 75%
    01:00 +6°C° 0 mm 4 mps 771 mmHg 75%
    02:00 +6°C° 0 mm 4 mps 771 mmHg 75%
    03:00 +7°C° 0 mm 3 mps 770 mmHg 75%
    04:00 +7°C° 0 mm 3 mps 771 mmHg 75%
    05:00 +7°C° 0 mm 3 mps 771 mmHg 75%
    06:00 +5°C° 0 mm 3 mps 771 mmHg 76%
    07:00 +7°C° 0 mm 3 mps 771 mmHg 74%
    08:00 +7°C° 0 mm 3 mps 772 mmHg 73%
    09:00 +7°C° 0 mm 3 mps 772 mmHg 70%
    10:00 +7°C° 0 mm 3 mps 772 mmHg 70%
    11:00 +8°C° 0 mm 3 mps 772 mmHg 69%
    12:00 +7°C° 0 mm 4 mps 772 mmHg 68%
    13:00 +7°C° 0 mm 4 mps 772 mmHg 70%
    14:00 +7°C° 0 mm 4 mps 772 mmHg 71%
    15:00 +7°C° 0 mm 4 mps 771 mmHg 72%
    16:00 +7°C° 0 mm 4 mps 771 mmHg 73%
    17:00 +6°C° 0 mm 5 mps 772 mmHg 75%
    18:00 +6°C° 0 mm 5 mps 772 mmHg 76%
    19:00 +6°C° 0 mm 4 mps 771 mmHg 77%
    20:00 +6°C° 0 mm 4 mps 771 mmHg 77%
    21:00 +6°C° 0 mm 4 mps 771 mmHg 78%
    22:00 +7°C° 0 mm 3 mps 771 mmHg 78%
    23:00 +7°C° 0 mm 3 mps 771 mmHg 78%

    Tomorrow, 20 December, Thursday

    Time Temperature Precipitation Wind Pressure Humidity
    00:00 +8°C° 0 mm 3 mps 771 mmHg 78%
    01:00 +8°C° 0 mm 3 mps 770 mmHg 78%
    02:00 +8°C° 0 mm 3 mps 770 mmHg 78%
    03:00 +7°C° 0 mm 4 mps 770 mmHg 79%
    04:00 +7°C° 0.1 mm 4 mps 770 mmHg 80%
    05:00 +7°C° 0.1 mm 4 mps 770 mmHg 81%
    06:00 +8°C° 0.1 mm 5 mps 770 mmHg 82%
    07:00 +8°C° 0.3 mm 5 mps 770 mmHg 83%
    08:00 +8°C° 0.3 mm 6 mps 770 mmHg 84%
    09:00 +8°C° 0.3 mm 7 mps 770 mmHg 85%
    10:00 +8°C° 0.3 mm 7 mps 769 mmHg 85%
    11:00 +8°C° 0.3 mm 7 mps 769 mmHg 85%
    12:00 +9°C° 0.3 mm 7 mps 768 mmHg 85%
    13:00 +8°C° 0.2 mm 7 mps 768 mmHg 85%
    14:00 +8°C° 0.2 mm 6 mps 768 mmHg 85%
    15:00 +8°C° 0.2 mm 6 mps 768 mmHg 85%
    16:00 +8°C° 0.1 mm 6 mps 768 mmHg 85%
    17:00 +8°C° 0.1 mm 6 mps 768 mmHg 84%
    18:00 +8°C° 0.1 mm 5 mps 768 mmHg 84%
    19:00 +8°C° 0.1 mm 5 mps 768 mmHg 83%
    20:00 +8°C° 0.1 mm 5 mps 768 mmHg 83%
    21:00 +8°C° 0.1 mm 4 mps 767 mmHg 82%
    22:00 +8°C° 0.3 mm 4 mps 767 mmHg 83%
    23:00 +7°C° 0.3 mm 4 mps 767 mmHg 83%

    Day after tomorrow, 21 December, Friday

    Time Temperature Precipitation Wind Pressure Humidity
    00:00 +7°C° 0.3 mm 4 mps 767 mmHg 84%
    01:00 +7°C° 0.6 mm 5 mps 768 mmHg 84%
    02:00 +7°C° 0.6 mm 5 mps 768 mmHg 84%
    03:00 +5°C° 0.6 mm 6 mps 768 mmHg 84%
    04:00 +5°C° 0.4 mm 6 mps 768 mmHg 83%
    05:00 +5°C° 0.4 mm 6 mps 768 mmHg 82%
    06:00 +5°C° 0.4 mm 7 mps 768 mmHg 81%
    07:00 +5°C° 0.1 mm 7 mps 768 mmHg 80%
    08:00 +5°C° 0.1 mm 7 mps 769 mmHg 79%
    09:00 +5°C° 0.1 mm 8 mps 769 mmHg 78%
    10:00 +5°C° 0.1 mm 8 mps 769 mmHg 77%
    11:00 +5°C° 0.1 mm 7 mps 769 mmHg 76%
    12:00 +5°C° 0.1 mm 7 mps 769 mmHg 75%
    13:00 +5°C° 0 mm 7 mps 769 mmHg 75%
    14:00 +5°C° 0 mm 7 mps 769 mmHg 74%
    15:00 +6°C° 0 mm 7 mps 769 mmHg 74%
    16:00 +5°C° 0 mm 7 mps 769 mmHg 75%
    17:00 +5°C° 0 mm 7 mps 769 mmHg 76%
    18:00 +5°C° 0 mm 6 mps 770 mmHg 77%
    19:00 +5°C° 0 mm 6 mps 770 mmHg 78%
    20:00 +5°C° 0 mm 6 mps 770 mmHg 78%
    21:00 +6°C° 0 mm 5 mps 770 mmHg 78%
    22:00 +6°C° 0 mm 5 mps 770 mmHg 78%
    23:00 +5°C° 0 mm 5 mps 769 mmHg 79%

    22 December, Saturday

    Time Temperature Precipitation Wind Pressure Humidity
    00:00 +5°C° 0 mm 4 mps 769 mmHg 79%
    01:00 +5°C° 0 mm 3 mps 769 mmHg 80%
    02:00 +5°C° 0 mm 3 mps 769 mmHg 80%
    03:00 +6°C° 0 mm 2 mps 769 mmHg 80%
    04:00 +6°C° 0 mm 2 mps 769 mmHg 80%
    05:00 +7°C° 0 mm 1 mps 769 mmHg 80%
    06:00 +7°C° 0 mm 1 mps 768 mmHg 80%
    07:00 +7°C° 0 mm 1 mps 769 mmHg 79%
    08:00 +8°C° 0 mm 1 mps 769 mmHg 78%
    09:00 +8°C° 0 mm 1 mps 769 mmHg 76%
    10:00 +8°C° 0 mm 2 mps 768 mmHg 74%
    11:00 +8°C° 0 mm 2 mps 768 mmHg 72%
    12:00 +9°C° 0 mm 3 mps 768 mmHg 70%
    13:00 +9°C° 0 mm 3 mps 767 mmHg 69%
    14:00 +9°C° 0 mm 3 mps 767 mmHg 69%
    15:00 +9°C° 0 mm 3 mps 767 mmHg 68%
    16:00 +9°C° 0 mm 3 mps 767 mmHg 70%
    17:00 +9°C° 0 mm 3 mps 767 mmHg 72%
    18:00 +9°C° 0 mm 3 mps 767 mmHg 73%
    19:00 +7°C° 0 mm 4 mps 767 mmHg 75%
    20:00 +7°C° 0 mm 4 mps 767 mmHg 76%
    21:00 +7°C° 0 mm 4 mps 767 mmHg 77%
    22:00 +8°C° 0 mm 3 mps 767 mmHg 77%
    23:00 +8°C° 0 mm 3 mps 767 mmHg 77%

    23 December, Sunday

    Time Temperature Precipitation Wind Pressure Humidity
    00:00 +8°C° 0 mm 3 mps 767 mmHg 77%
    01:00 +8°C° 0 mm 3 mps 767 mmHg 77%
    02:00 +8°C° 0 mm 3 mps 767 mmHg 78%
    03:00 +8°C° 0 mm 2 mps 767 mmHg 78%
    04:00 +8°C° 0 mm 2 mps 766 mmHg 79%
    05:00 +7°C° 0 mm 2 mps 766 mmHg 80%
    06:00 +7°C° 0 mm 2 mps 766 mmHg 81%
    07:00 +8°C° 0.1 mm 3 mps 767 mmHg 80%
    08:00 +8°C° 0.1 mm 3 mps 767 mmHg 78%
    09:00 +8°C° 0.1 mm 4 mps 767 mmHg 77%
    10:00 +8°C° 0 mm 4 mps 766 mmHg 72%
    11:00 +9°C° 0 mm 5 mps 766 mmHg 67%
    12:00 +10°C° 0 mm 6 mps 765 mmHg 62%
    13:00 +10°C° 0 mm 6 mps 765 mmHg 61%
    14:00 +10°C° 0 mm 7 mps 764 mmHg 61%
    15:00 +10°C° 0 mm 7 mps 764 mmHg 60%
    16:00 +10°C° 0 mm 7 mps 764 mmHg 64%
    17:00 +9°C° 0 mm 7 mps 764 mmHg 68%
    18:00 +9°C° 0 mm 8 mps 763 mmHg 72%
    19:00 +9°C° 0 mm 8 mps 763 mmHg 73%
    20:00 +9°C° 0 mm 8 mps 763 mmHg 74%
    21:00 +7°C° 0 mm 8 mps 763 mmHg 75%
    22:00 +7°C° 0 mm 9 mps 762 mmHg 77%
    23:00 +7°C° 0 mm 9 mps 762 mmHg 78%

    24 December, Monday

    Time Temperature Precipitation Wind Pressure Humidity
    00:00 +8°C° 0 mm 9 mps 761 mmHg 80%
    01:00 +7°C° 0.1 mm 10 mps 761 mmHg 78%
    02:00 +7°C° 0.1 mm 10 mps 760 mmHg 77%
    03:00 +7°C° 0.1 mm 10 mps 760 mmHg 75%
    04:00 +7°C° 0 mm 10 mps 760 mmHg 71%
    05:00 +7°C° 0 mm 10 mps 759 mmHg 66%
    06:00 +6°C° 0 mm 10 mps 759 mmHg 62%
    07:00 +6°C° 0 mm 10 mps 760 mmHg 59%
    08:00 +6°C° 0 mm 9 mps 760 mmHg 56%
    09:00 +6°C° 0 mm 8 mps 760 mmHg 53%
    10:00 +9°C° 0 mm 8 mps 760 mmHg 48%
    11:00 +10°C° 0 mm 7 mps 759 mmHg 44%
    12:00 +11°C° 0 mm 7 mps 759 mmHg 39%
    13:00 +11°C° 0 mm 7 mps 759 mmHg 39%
    14:00 +13°C° 0 mm 6 mps 759 mmHg 39%
    15:00 +13°C° 0 mm 5 mps 759 mmHg 38%
    16:00 +12°C° 0 mm 5 mps 759 mmHg 44%
    17:00 +10°C° 0 mm 5 mps 760 mmHg 50%
    18:00 +9°C° 0 mm 5 mps 760 mmHg 56%
    19:00 +9°C° 0 mm 5 mps 760 mmHg 60%
    20:00 +8°C° 0 mm 5 mps 761 mmHg 64%
    21:00 +8°C° 0 mm 5 mps 761 mmHg 67%
    22:00 +8°C° 0 mm 5 mps 761 mmHg 69%
    23:00 +7°C° 0 mm 5 mps 762 mmHg 71%
    Show more